Time,TemperatureF,DewpointF,PressureIn,WindDirection,WindDirectionDegrees,WindSpeedMPH,WindSpeedGustMPH,Humidity,HourlyPrecipIn,Conditions,Clouds,dailyrainin,SoftwareType,DateUTC
2013-03-26 00:00:00,33.1,27.9,29.94,WNW,292,4.0,4.6,81,0.00,CLR,SKC,0.26,WeatherDisplay:10.37,2013-03-26 04:00:00,
2013-03-26 00:05:00,32.9,27.7,29.94,West,270,2.6,4.9,81,0.00,RA,SKC,0.00,WeatherDisplay:10.37,2013-03-26 04:05:00,
2013-03-26 00:10:00,32.9,27.7,29.95,NW,315,3.5,5.8,81,0.00,RA,SKC,0.00,WeatherDisplay:10.37,2013-03-26 04:10:00,
2013-03-26 00:15:00,32.9,27.7,29.95,NNW,338,4.6,10.4,81,0.00,CLR,SKC,0.00,WeatherDisplay:10.37,2013-03-26 04:15:00,
2013-03-26 00:20:00,32.9,27.7,29.94,NW,315,7.3,13.8,81,0.00,CLR,SKC,0.00,WeatherDisplay:10.37,2013-03-26 04:20:00,
2013-03-26 00:25:00,32.9,27.7,29.95,NW,315,3.2,6.9,81,0.00,CLR,SKC,0.00,WeatherDisplay:10.37,2013-03-26 04:25:00,
2013-03-26 00:30:00,32.9,27.7,29.95,NNW,338,3.0,5.4,81,0.00,CLR,SKC,0.00,WeatherDisplay:10.37,2013-03-26 04:30:00,
2013-03-26 00:35:00,32.9,27.7,29.95,NNW,338,3.7,3.7,81,0.00,CLR,SKC,0.00,WeatherDisplay:10.37,2013-03-26 04:35:00,
2013-03-26 00:40:00,32.9,27.7,29.95,North,0,4.2,6.9,81,0.00,CLR,SKC,0.00,WeatherDisplay:10.37,2013-03-26 04:40:00,
2013-03-26 00:45:00,32.9,27.7,29.95,NW,315,4.5,8.1,81,0.00,CLR,SKC,0.00,WeatherDisplay:10.37,2013-03-26 04:45:00,
2013-03-26 00:50:00,32.9,27.7,29.95,WNW,292,3.3,4.6,81,0.00,CLR,SKC,0.00,WeatherDisplay:10.37,2013-03-26 04:50:00,
2013-03-26 00:55:00,32.9,27.7,29.95,NNW,338,1.8,4.6,81,0.00,CLR,SKC,0.00,WeatherDisplay:10.37,2013-03-26 04:55:00,
2013-03-26 01:00:00,32.9,27.7,29.95,NNW,338,2.9,4.6,81,0.00,CLR,SKC,0.00,WeatherDisplay:10.37,2013-03-26 05:00:00,
2013-03-26 01:05:00,32.9,27.7,29.95,NNW,338,3.6,4.6,81,0.00,CLR,SKC,0.00,WeatherDisplay:10.37,2013-03-26 05:05:00,
2013-03-26 01:10:00,32.9,27.7,29.95,NW,315,2.0,3.5,81,0.00,CLR,SKC,0.00,WeatherDisplay:10.37,2013-03-26 05:10:00,
2013-03-26 01:16:00,32.9,27.7,29.96,NNW,338,2.8,3.5,81,0.00,CLR,SKC,0.00,WeatherDisplay:10.37,2013-03-26 05:16:00,
2013-03-26 01:21:00,32.9,27.7,29.95,NNW,338,2.2,5.8,81,0.00,CLR,SKC,0.00,WeatherDisplay:10.37,2013-03-26 05:21:00,
2013-03-26 01:26:00,32.9,27.7,29.96,NNW,338,4.2,4.6,81,0.00,CLR,SKC,0.00,WeatherDisplay:10.37,2013-03-26 05:26:00,
2013-03-26 01:31:00,32.9,27.7,29.96,NW,315,2.6,4.6,81,0.00,CLR,SKC,0.00,WeatherDisplay:10.37,2013-03-26 05:31:00,
2013-03-26 01:36:00,33.1,27.9,29.96,NNW,338,1.9,3.6,81,0.00,CLR,SKC,0.00,WeatherDisplay:10.37,2013-03-26 05:36:00,
2013-03-26 01:41:00,33.1,27.6,29.96,NNE,22,5.0,5.8,80,0.00,CLR,SKC,0.00,WeatherDisplay:10.37,2013-03-26 05:41:00,
2013-03-26 01:46:00,32.9,27.4,29.96,NW,315,7.3,9.2,80,0.00,CLR,SKC,0.00,WeatherDisplay:10.37,2013-03-26 05:46:00,
2013-03-26 01:51:00,32.9,27.4,29.96,NNW,338,3.5,8.1,80,0.00,CLR,SKC,0.00,WeatherDisplay:10.37,2013-03-26 05:51:00,
2013-03-26 01:56:00,32.9,27.4,29.97,West,270,5.0,6.9,80,0.00,CLR,SKC,0.00,WeatherDisplay:10.37,2013-03-26 05:56:00,
2013-03-26 02:00:00,32.9,27.4,29.97,WNW,292,6.4,11.5,80,0.00,CLR,SKC,0.00,WeatherDisplay:10.37,2013-03-26 06:00:00,
2013-03-26 02:05:00,32.7,27.5,29.97,WNW,292,4.9,8.5,81,0.00,CLR,SKC,0.00,WeatherDisplay:10.37,2013-03-26 06:05:00,
2013-03-26 02:10:00,32.7,27.5,29.97,NW,315,4.5,8.1,81,0.00,CLR,SKC,0.00,WeatherDisplay:10.37,2013-03-26 06:10:00,
2013-03-26 02:15:00,32.7,27.5,29.97,NW,315,5.1,7.4,81,0.00,CLR,SKC,0.00,WeatherDisplay:10.37,2013-03-26 06:15:00,
2013-03-26 02:20:00,32.7,27.5,29.97,WNW,292,3.4,6.9,81,0.00,CLR,SKC,0.00,WeatherDisplay:10.37,2013-03-26 06:20:00,
2013-03-26 02:25:00,32.5,27.4,29.97,WNW,292,5.4,9.2,81,0.00,CLR,SKC,0.00,WeatherDisplay:10.37,2013-03-26 06:25:00,
2013-03-26 02:30:00,32.4,27.2,29.97,WNW,292,3.6,5.8,81,0.00,CLR,SKC,0.00,WeatherDisplay:10.37,2013-03-26 06:30:00,
2013-03-26 02:35:00,32.2,27.0,29.97,West,270,8.1,9.2,81,0.00,CLR,SKC,0.00,WeatherDisplay:10.37,2013-03-26 06:35:00,
2013-03-26 02:40:00,32.2,27.0,29.97,West,270,2.8,11.5,81,0.00,CLR,SKC,0.00,WeatherDisplay:10.37,2013-03-26 06:40:00,
2013-03-26 02:45:00,32.2,27.0,29.97,WNW,292,5.2,9.2,81,0.00,CLR,SKC,0.00,WeatherDisplay:10.37,2013-03-26 06:45:00,
2013-03-26 02:50:00,31.8,26.7,29.98,WNW,292,2.5,7.6,81,0.00,CLR,SKC,0.00,WeatherDisplay:10.37,2013-03-26 06:50:00,
2013-03-26 02:55:00,31.8,26.7,29.98,WNW,292,3.5,6.9,81,0.00,CLR,SKC,0.00,WeatherDisplay:10.37,2013-03-26 06:55:00,
2013-03-26 03:00:00,31.8,26.7,29.98,NW,315,6.8,9.2,81,0.00,CLR,SKC,0.00,WeatherDisplay:10.37,2013-03-26 07:00:00,
2013-03-26 03:05:00,31.8,26.7,29.98,NW,315,5.2,6.9,81,0.00,CLR,SKC,0.00,WeatherDisplay:10.37,2013-03-26 07:05:00,
2013-03-26 03:10:00,31.6,26.5,29.98,NW,315,3.3,5.4,81,0.00,CLR,SKC,0.00,WeatherDisplay:10.37,2013-03-26 07:10:00,
2013-03-26 03:15:00,31.6,26.5,29.98,WNW,292,6.3,11.5,81,0.00,CLR,SKC,0.00,WeatherDisplay:10.37,2013-03-26 07:15:00,
2013-03-26 03:20:00,31.6,26.5,29.98,NW,315,1.6,4.6,81,0.00,CLR,SKC,0.00,WeatherDisplay:10.37,2013-03-26 07:20:00,
2013-03-26 03:25:00,31.6,26.5,29.98,WNW,292,6.7,8.1,81,0.00,CLR,SKC,0.00,WeatherDisplay:10.37,2013-03-26 07:25:00,
2013-03-26 03:30:00,31.6,26.5,29.98,NW,315,1.2,9.2,81,0.00,CLR,SKC,0.00,WeatherDisplay:10.37,2013-03-26 07:30:00,
2013-03-26 03:35:00,31.3,26.1,29.98,NNW,338,2.6,4.6,81,0.00,CLR,SKC,0.00,WeatherDisplay:10.37,2013-03-26 07:35:00,
2013-03-26 03:40:00,31.3,26.1,29.99,NNW,338,4.9,4.9,81,0.00,CLR,SKC,0.00,WeatherDisplay:10.37,2013-03-26 07:40:00,
2013-03-26 03:45:00,31.6,26.5,29.98,WNW,292,2.8,9.2,81,0.00,CLR,SKC,0.00,WeatherDisplay:10.37,2013-03-26 07:45:00,
2013-03-26 03:50:00,31.6,26.5,29.99,NW,315,5.0,8.1,81,0.00,CLR,SKC,0.00,WeatherDisplay:10.37,2013-03-26 07:50:00,
2013-03-26 03:55:00,31.6,26.5,29.99,NNW,338,1.4,3.8,81,0.00,CLR,SKC,0.00,WeatherDisplay:10.37,2013-03-26 07:55:00,
2013-03-26 04:00:00,31.6,26.5,29.99,NW,315,1.9,4.6,81,0.00,CLR,SKC,0.00,WeatherDisplay:10.37,2013-03-26 08:00:00,
2013-03-26 04:05:00,31.6,26.5,29.99,WNW,292,1.3,3.5,81,0.00,CLR,SKC,0.00,WeatherDisplay:10.37,2013-03-26 08:05:00,
2013-03-26 04:10:00,31.6,26.5,29.98,WNW,292,2.5,4.6,81,0.00,CLR,SKC,0.00,WeatherDisplay:10.37,2013-03-26 08:10:00,
2013-03-26 04:15:00,31.6,26.5,29.98,NW,315,2.2,2.5,81,0.00,CLR,SKC,0.00,WeatherDisplay:10.37,2013-03-26 08:15:00,
2013-03-26 04:20:00,31.6,26.5,29.97,WNW,292,5.2,5.8,81,0.00,CLR,SKC,0.00,WeatherDisplay:10.37,2013-03-26 08:20:00,
2013-03-26 04:25:00,31.6,26.5,29.97,NNW,338,2.3,5.6,81,0.00,CLR,SKC,0.00,WeatherDisplay:10.37,2013-03-26 08:25:00,
2013-03-26 04:31:00,31.8,26.7,29.97,NW,315,0.9,4.6,81,0.00,CLR,SKC,0.00,WeatherDisplay:10.37,2013-03-26 08:31:00,
2013-03-26 04:36:00,31.8,26.7,29.97,NW,315,3.9,8.1,81,0.00,CLR,SKC,0.00,WeatherDisplay:10.37,2013-03-26 08:36:00,
2013-03-26 04:41:00,31.8,26.7,29.97,WNW,292,3.8,6.9,81,0.00,CLR,SKC,0.00,WeatherDisplay:10.37,2013-03-26 08:41:00,
2013-03-26 04:46:00,32.0,26.8,29.97,NW,315,3.8,9.2,81,0.00,CLR,SKC,0.00,WeatherDisplay:10.37,2013-03-26 08:46:00,
2013-03-26 04:51:00,32.2,27.0,29.97,NNW,338,5.5,5.8,81,0.00,CLR,SKC,0.00,WeatherDisplay:10.37,2013-03-26 08:51:00,
2013-03-26 04:56:00,32.2,26.7,29.97,NNW,338,1.0,2.3,80,0.00,CLR,SKC,0.00,WeatherDisplay:10.37,2013-03-26 08:56:00,
2013-03-26 05:01:00,32.2,26.7,29.97,WNW,292,3.2,6.3,80,0.00,CLR,SKC,0.00,WeatherDisplay:10.37,2013-03-26 09:01:00,
2013-03-26 05:06:00,32.2,26.7,29.97,NW,315,3.8,5.8,80,0.00,CLR,SKC,0.00,WeatherDisplay:10.37,2013-03-26 09:06:00,
2013-03-26 05:11:00,32.2,27.0,29.97,NW,315,2.9,3.5,81,0.00,CLR,SKC,0.00,WeatherDisplay:10.37,2013-03-26 09:11:00,
2013-03-26 05:16:00,31.8,26.7,29.97,NW,315,1.5,5.8,81,0.00,CLR,SKC,0.00,WeatherDisplay:10.37,2013-03-26 09:16:00,
2013-03-26 05:21:00,31.8,26.7,29.97,NW,315,1.6,2.9,81,0.00,CLR,SKC,0.00,WeatherDisplay:10.37,2013-03-26 09:21:00,
2013-03-26 05:26:00,31.8,26.7,29.97,NW,315,2.7,3.5,81,0.00,CLR,SKC,0.00,WeatherDisplay:10.37,2013-03-26 09:26:00,
2013-03-26 05:31:00,31.8,26.7,29.97,NW,315,4.4,7.4,81,0.00,CLR,SKC,0.00,WeatherDisplay:10.37,2013-03-26 09:31:00,
2013-03-26 05:36:00,31.8,26.7,29.97,NW,315,4.4,5.8,81,0.00,CLR,SKC,0.00,WeatherDisplay:10.37,2013-03-26 09:36:00,
2013-03-26 05:41:00,31.8,26.7,29.97,NW,315,2.5,3.5,81,0.00,CLR,SKC,0.00,WeatherDisplay:10.37,2013-03-26 09:41:00,
2013-03-26 05:46:00,31.6,26.5,29.98,WNW,292,2.7,3.5,81,0.00,CLR,SKC,0.00,WeatherDisplay:10.37,2013-03-26 09:46:00,
2013-03-26 05:51:00,31.8,26.7,29.98,NW,315,1.3,3.5,81,0.00,CLR,SKC,0.00,WeatherDisplay:10.37,2013-03-26 09:51:00,
2013-03-26 05:56:00,31.8,26.7,29.97,NNW,338,5.7,8.1,81,0.00,CLR,SKC,0.00,WeatherDisplay:10.37,2013-03-26 09:56:00,
2013-03-26 06:01:00,31.8,26.7,29.98,NNW,338,1.0,3.6,81,0.00,CLR,SKC,0.00,WeatherDisplay:10.37,2013-03-26 10:01:00,
2013-03-26 06:06:00,31.8,26.7,29.98,WNW,292,3.8,4.6,81,0.00,CLR,SKC,0.00,WeatherDisplay:10.37,2013-03-26 10:06:00,
2013-03-26 06:11:00,31.8,26.7,29.99,NW,315,4.1,5.8,81,0.00,CLR,SKC,0.00,WeatherDisplay:10.37,2013-03-26 10:11:00,
2013-03-26 06:16:00,31.8,26.7,29.98,NW,315,2.5,3.5,81,0.00,CLR,SKC,0.00,WeatherDisplay:10.37,2013-03-26 10:16:00,
2013-03-26 06:21:00,31.8,26.7,29.98,WNW,292,5.6,6.9,81,0.00,CLR,SKC,0.00,WeatherDisplay:10.37,2013-03-26 10:21:00,
2013-03-26 06:26:00,31.8,26.7,29.99,West,270,3.5,4.6,81,0.00,CLR,SKC,0.00,WeatherDisplay:10.37,2013-03-26 10:26:00,
2013-03-26 06:31:00,31.8,26.7,30.00,North,0,3.5,6.9,81,0.00,CLR,SKC,0.00,WeatherDisplay:10.37,2013-03-26 10:31:00,
2013-03-26 06:36:00,31.8,26.7,29.99,NW,315,3.5,3.5,81,0.00,CLR,SKC,0.00,WeatherDisplay:10.37,2013-03-26 10:36:00,
2013-03-26 06:41:00,32.0,27.1,30.00,WNW,292,3.1,5.8,82,0.00,CLR,SKC,0.00,WeatherDisplay:10.37,2013-03-26 10:41:00,
2013-03-26 06:46:00,32.0,27.1,30.00,NW,315,3.1,8.9,82,0.00,CLR,SKC,0.00,WeatherDisplay:10.37,2013-03-26 10:46:00,
2013-03-26 06:51:00,32.0,27.1,30.00,NW,315,3.9,3.9,82,0.00,CLR,SKC,0.00,WeatherDisplay:10.37,2013-03-26 10:51:00,
2013-03-26 06:56:00,31.8,27.0,30.00,NW,315,3.8,6.9,82,0.00,CLR,SKC,0.00,WeatherDisplay:10.37,2013-03-26 10:56:00,
2013-03-26 07:01:00,31.8,27.0,30.00,NW,315,4.3,5.8,82,0.00,CLR,SKC,0.00,WeatherDisplay:10.37,2013-03-26 11:01:00,
2013-03-26 07:06:00,31.8,27.0,30.00,NW,315,2.1,3.5,82,0.00,CLR,SKC,0.00,WeatherDisplay:10.37,2013-03-26 11:06:00,
2013-03-26 07:11:00,31.8,27.0,30.00,WNW,292,4.2,5.4,82,0.00,CLR,SKC,0.00,WeatherDisplay:10.37,2013-03-26 11:11:00,
2013-03-26 07:16:00,31.8,27.0,30.00,NNW,338,5.1,5.8,82,0.00,CLR,SKC,0.00,WeatherDisplay:10.37,2013-03-26 11:16:00,
2013-03-26 07:21:00,31.8,27.0,30.01,WNW,292,6.8,11.5,82,0.00,CLR,SKC,0.00,WeatherDisplay:10.37,2013-03-26 11:21:00,
2013-03-26 07:26:00,31.8,27.0,30.01,NW,315,2.8,5.8,82,0.00,CLR,SKC,0.00,WeatherDisplay:10.37,2013-03-26 11:26:00,
2013-03-26 07:31:00,31.8,27.0,30.01,WNW,292,5.0,9.2,82,0.00,CLR,SKC,0.00,WeatherDisplay:10.37,2013-03-26 11:31:00,
2013-03-26 07:36:00,31.8,27.0,30.01,WNW,292,2.4,5.8,82,0.00,CLR,SKC,0.00,WeatherDisplay:10.37,2013-03-26 11:36:00,
2013-03-26 07:41:00,31.8,27.0,30.01,NW,315,2.1,3.5,82,0.00,CLR,SKC,0.00,WeatherDisplay:10.37,2013-03-26 11:41:00,
2013-03-26 07:46:00,31.8,27.2,30.01,NW,315,1.2,2.3,83,0.00,CLR,SKC,0.00,WeatherDisplay:10.37,2013-03-26 11:46:00,
2013-03-26 07:51:00,32.2,27.6,30.02,WNW,292,2.5,4.6,83,0.00,CLR,SKC,0.00,WeatherDisplay:10.37,2013-03-26 11:51:00,
2013-03-26 07:55:00,32.2,27.6,30.02,West,270,5.2,5.8,83,0.00,CLR,SKC,0.00,WeatherDisplay:10.37,2013-03-26 11:55:00,
2013-03-26 08:00:00,32.2,27.6,30.03,West,270,2.9,3.5,83,0.00,CLR,SKC,0.00,WeatherDisplay:10.37,2013-03-26 12:00:00,
2013-03-26 08:05:00,32.2,27.6,30.03,NW,315,5.3,5.3,83,0.00,CLR,SKC,0.00,WeatherDisplay:10.37,2013-03-26 12:05:00,
2013-03-26 08:11:00,32.2,27.6,30.03,NW,315,3.1,3.5,83,0.00,CLR,SKC,0.00,WeatherDisplay:10.37,2013-03-26 12:11:00,
2013-03-26 08:15:00,32.4,27.5,30.03,WNW,292,5.1,8.1,82,0.00,CLR,SKC,0.00,WeatherDisplay:10.37,2013-03-26 12:15:00,
2013-03-26 08:21:00,32.5,27.7,30.03,NW,315,2.8,10.4,82,0.00,CLR,SKC,0.00,WeatherDisplay:10.37,2013-03-26 12:21:00,
2013-03-26 08:26:00,32.7,27.8,30.03,WNW,292,2.7,4.6,82,0.00,CLR,SKC,0.00,WeatherDisplay:10.37,2013-03-26 12:26:00,
2013-03-26 08:31:00,33.1,28.2,30.03,NW,315,2.7,4.6,82,0.00,CLR,SKC,0.00,WeatherDisplay:10.37,2013-03-26 12:31:00,
2013-03-26 08:36:00,33.3,28.4,30.03,NW,315,6.6,9.2,82,0.00,CLR,SKC,0.00,WeatherDisplay:10.37,2013-03-26 12:36:00,
2013-03-26 08:41:00,33.6,28.4,30.03,WNW,292,3.8,8.5,81,0.00,CLR,SKC,0.00,WeatherDisplay:10.37,2013-03-26 12:41:00,
2013-03-26 08:45:00,33.6,28.4,30.03,NW,315,4.0,5.8,81,0.00,CLR,SKC,0.00,WeatherDisplay:10.37,2013-03-26 12:45:00,
2013-03-26 08:50:00,34.0,28.5,30.04,NNW,338,0.2,4.5,80,0.00,CLR,SKC,0.00,WeatherDisplay:10.37,2013-03-26 12:50:00,
2013-03-26 08:55:00,34.0,28.5,30.05,West,270,3.3,6.9,80,0.00,CLR,SKC,0.00,WeatherDisplay:10.37,2013-03-26 12:55:00,
2013-03-26 09:00:00,34.2,28.3,30.04,NW,315,3.4,6.9,79,0.00,CLR,SKC,0.00,WeatherDisplay:10.37,2013-03-26 13:00:00,
2013-03-26 09:05:00,34.5,28.7,30.05,WNW,292,4.2,5.8,79,0.00,CLR,SKC,0.00,WeatherDisplay:10.37,2013-03-26 13:05:00,
2013-03-26 09:10:00,34.9,29.0,30.05,WNW,292,5.3,8.1,79,0.00,CLR,SKC,0.00,WeatherDisplay:10.37,2013-03-26 13:10:00,
2013-03-26 09:15:00,35.1,28.9,30.05,NW,315,1.9,4.6,78,0.00,CLR,SKC,0.00,WeatherDisplay:10.37,2013-03-26 13:15:00,
2013-03-26 09:20:00,35.2,29.1,30.05,WNW,292,3.5,4.6,78,0.00,CLR,SKC,0.00,WeatherDisplay:10.37,2013-03-26 13:20:00,
2013-03-26 09:25:00,35.4,28.9,30.05,NW,315,3.5,4.6,77,0.00,CLR,SKC,0.00,WeatherDisplay:10.37,2013-03-26 13:25:00,
2013-03-26 09:30:00,35.8,29.3,30.05,NW,315,2.8,5.8,77,0.00,CLR,SKC,0.00,WeatherDisplay:10.37,2013-03-26 13:30:00,
2013-03-26 09:35:00,36.1,29.6,30.06,WNW,292,5.1,8.1,77,0.00,CLR,SKC,0.00,WeatherDisplay:10.37,2013-03-26 13:35:00,
2013-03-26 09:40:00,36.3,29.5,30.06,NW,315,1.4,4.6,76,0.00,CLR,SKC,0.00,WeatherDisplay:10.37,2013-03-26 13:40:00,
2013-03-26 09:45:00,37.0,30.2,30.06,NW,315,2.7,3.5,76,0.00,CLR,SKC,0.00,WeatherDisplay:10.37,2013-03-26 13:45:00,
2013-03-26 09:50:00,37.6,30.4,30.06,NW,315,3.8,4.6,75,0.00,CLR,SKC,0.00,WeatherDisplay:10.37,2013-03-26 13:50:00,
2013-03-26 09:55:00,37.9,30.4,30.06,NW,315,0.6,2.3,74,0.00,CLR,SKC,0.00,WeatherDisplay:10.37,2013-03-26 13:55:00,
2013-03-26 10:01:00,38.5,30.6,30.06,WNW,292,4.5,10.4,73,0.00,CLR,SKC,0.00,WeatherDisplay:10.37,2013-03-26 14:01:00,
2013-03-26 10:06:00,38.8,30.9,30.06,WNW,292,3.1,8.1,73,0.00,CLR,SKC,0.00,WeatherDisplay:10.37,2013-03-26 14:06:00,
2013-03-26 10:11:00,38.8,30.6,30.06,West,270,4.8,8.1,72,0.00,CLR,SKC,0.00,WeatherDisplay:10.37,2013-03-26 14:11:00,
2013-03-26 10:16:00,39.4,31.1,30.07,West,270,4.9,4.9,72,0.00,CLR,SKC,0.00,WeatherDisplay:10.37,2013-03-26 14:16:00,
2013-03-26 10:21:00,39.9,31.3,30.07,West,270,6.1,6.1,71,0.00,CLR,SKC,0.00,WeatherDisplay:10.37,2013-03-26 14:21:00,
2013-03-26 10:26:00,40.1,31.4,30.07,WNW,292,6.3,8.1,71,0.00,CLR,SKC,0.00,WeatherDisplay:10.37,2013-03-26 14:26:00,
2013-03-26 10:31:00,40.3,31.3,30.07,NW,315,1.6,4.6,70,0.00,CLR,SKC,0.00,WeatherDisplay:10.37,2013-03-26 14:31:00,
2013-03-26 10:36:00,40.6,31.6,30.07,West,270,4.2,7.4,70,0.00,CLR,SKC,0.00,WeatherDisplay:10.37,2013-03-26 14:36:00,
2013-03-26 10:41:00,40.8,31.4,30.07,NNW,338,4.0,5.8,69,0.00,CLR,SKC,0.00,WeatherDisplay:10.37,2013-03-26 14:41:00,
2013-03-26 10:46:00,41.4,31.6,30.07,WNW,292,5.7,8.1,68,0.00,CLR,SKC,0.00,WeatherDisplay:10.37,2013-03-26 14:46:00,
2013-03-26 10:51:00,41.5,31.8,30.07,WNW,292,2.4,4.6,68,0.00,CLR,SKC,0.00,WeatherDisplay:10.37,2013-03-26 14:51:00,
2013-03-26 10:56:00,41.9,31.7,30.07,WNW,292,2.0,4.6,67,0.00,CLR,SKC,0.00,WeatherDisplay:10.37,2013-03-26 14:56:00,
2013-03-26 11:01:00,42.1,31.9,30.08,NNW,338,0.8,3.5,67,0.00,CLR,SKC,0.00,WeatherDisplay:10.37,2013-03-26 15:01:00,
2013-03-26 11:06:00,42.4,31.9,30.07,West,270,1.4,5.8,66,0.00,CLR,SKC,0.00,WeatherDisplay:10.37,2013-03-26 15:06:00,
2013-03-26 11:11:00,42.6,32.0,30.08,NW,315,4.0,6.9,66,0.00,CLR,SKC,0.00,WeatherDisplay:10.37,2013-03-26 15:11:00,
2013-03-26 11:16:00,42.6,31.7,30.08,West,270,4.5,9.2,65,0.00,CLR,SKC,0.00,WeatherDisplay:10.37,2013-03-26 15:16:00,
2013-03-26 11:21:00,42.4,31.5,30.08,WNW,292,4.7,8.1,65,0.00,CLR,SKC,0.02,WeatherDisplay:10.37,2013-03-26 15:21:00,
2013-03-26 11:26:00,43.0,32.0,30.08,WNW,292,4.9,6.9,65,0.02,RA,SKC,0.02,WeatherDisplay:10.37,2013-03-26 15:26:00,
2013-03-26 11:31:00,43.9,32.5,30.08,WNW,292,3.2,5.8,64,0.02,RA,SKC,0.02,WeatherDisplay:10.37,2013-03-26 15:31:00,
2013-03-26 11:36:00,44.4,32.6,30.08,NW,315,4.6,5.8,63,0.02,CLR,SKC,0.02,WeatherDisplay:10.37,2013-03-26 15:36:00,
2013-03-26 11:41:00,45.0,33.1,30.08,NNW,338,5.0,8.3,63,0.02,CLR,SKC,0.02,WeatherDisplay:10.37,2013-03-26 15:41:00,
2013-03-26 11:46:00,45.5,32.8,30.08,NNW,338,3.7,5.8,61,0.02,CLR,SKC,0.02,WeatherDisplay:10.37,2013-03-26 15:46:00,
2013-03-26 11:51:00,46.0,33.3,30.08,WNW,292,2.9,5.8,61,0.02,CLR,SKC,0.02,WeatherDisplay:10.37,2013-03-26 15:51:00,
2013-03-26 11:56:00,46.0,33.3,30.08,NNW,338,5.1,5.8,61,0.02,CLR,SKC,0.02,WeatherDisplay:10.37,2013-03-26 15:56:00,
2013-03-26 12:01:00,45.9,32.7,30.08,NNW,338,6.1,12.7,60,0.02,CLR,SKC,0.02,WeatherDisplay:10.37,2013-03-26 16:01:00,
2013-03-26 12:06:00,45.3,32.2,30.08,NW,315,6.6,8.1,60,0.02,CLR,SKC,0.02,WeatherDisplay:10.37,2013-03-26 16:06:00,
2013-03-26 12:11:00,45.1,32.1,30.09,NW,315,4.0,4.6,60,0.02,CLR,SKC,0.02,WeatherDisplay:10.37,2013-03-26 16:11:00,
2013-03-26 12:16:00,45.1,32.1,30.08,NNW,338,3.8,12.5,60,0.02,CLR,SKC,0.02,WeatherDisplay:10.37,2013-03-26 16:16:00,
2013-03-26 12:21:00,45.3,32.2,30.09,West,270,4.3,6.9,60,0.02,CLR,SKC,0.02,WeatherDisplay:10.37,2013-03-26 16:21:00,
2013-03-26 12:26:00,45.7,32.6,30.09,NNW,338,4.8,6.9,60,0.00,CLR,SKC,0.02,WeatherDisplay:10.37,2013-03-26 16:26:00,
2013-03-26 12:31:00,46.0,32.5,30.09,NW,315,5.0,5.8,59,0.00,CLR,SKC,0.02,WeatherDisplay:10.37,2013-03-26 16:31:00,
2013-03-26 12:36:00,46.0,32.5,30.09,NW,315,5.3,10.4,59,0.00,CLR,SKC,0.02,WeatherDisplay:10.37,2013-03-26 16:36:00,
2013-03-26 12:41:00,45.7,32.2,30.09,NW,315,5.3,9.2,59,0.00,CLR,SKC,0.02,WeatherDisplay:10.37,2013-03-26 16:41:00,
2013-03-26 12:46:00,45.5,32.0,30.09,NW,315,5.4,6.9,59,0.00,CLR,SKC,0.02,WeatherDisplay:10.37,2013-03-26 16:46:00,
2013-03-26 12:51:00,45.5,32.0,30.09,NNW,338,4.8,6.9,59,0.00,CLR,SKC,0.02,WeatherDisplay:10.37,2013-03-26 16:51:00,
2013-03-26 12:56:00,46.0,32.1,30.09,NW,315,4.1,6.9,58,0.00,CLR,SKC,0.02,WeatherDisplay:10.37,2013-03-26 16:56:00,
2013-03-26 13:01:00,46.9,32.9,30.09,West,270,5.2,5.8,58,0.00,CLR,SKC,0.02,WeatherDisplay:10.37,2013-03-26 17:01:00,
2013-03-26 13:06:00,47.3,32.8,30.09,WNW,292,6.7,8.1,57,0.00,CLR,SKC,0.02,WeatherDisplay:10.37,2013-03-26 17:06:00,
2013-03-26 13:11:00,47.3,32.4,30.09,West,270,4.0,6.3,56,0.00,CLR,SKC,0.02,WeatherDisplay:10.37,2013-03-26 17:11:00,
2013-03-26 13:16:00,47.1,32.2,30.09,West,270,5.7,11.5,56,0.00,CLR,SKC,0.02,WeatherDisplay:10.37,2013-03-26 17:16:00,
2013-03-26 13:21:00,46.8,31.9,30.09,NNW,338,4.5,8.1,56,0.00,CLR,SKC,0.02,WeatherDisplay:10.37,2013-03-26 17:21:00,
2013-03-26 13:26:00,46.9,31.6,30.09,NW,315,5.9,7.2,55,0.00,CLR,SKC,0.02,WeatherDisplay:10.37,2013-03-26 17:26:00,
2013-03-26 13:31:00,46.8,31.4,30.09,NNW,338,3.6,5.8,55,0.00,CLR,SKC,0.02,WeatherDisplay:10.37,2013-03-26 17:31:00,
2013-03-26 13:36:00,47.5,32.1,30.09,NNW,338,3.9,5.8,55,0.00,CLR,SKC,0.02,WeatherDisplay:10.37,2013-03-26 17:36:00,
2013-03-26 13:41:00,47.5,32.1,30.09,WNW,292,5.4,6.9,55,0.00,CLR,SKC,0.02,WeatherDisplay:10.37,2013-03-26 17:41:00,
2013-03-26 13:46:00,46.9,31.6,30.09,West,270,6.1,6.1,55,0.00,CLR,SKC,0.02,WeatherDisplay:10.37,2013-03-26 17:46:00,
2013-03-26 13:51:00,46.6,31.3,30.09,WNW,292,6.2,12.7,55,0.00,CLR,SKC,0.02,WeatherDisplay:10.37,2013-03-26 17:51:00,
2013-03-26 13:56:00,46.0,30.8,30.09,NW,315,3.5,4.6,55,0.00,CLR,SKC,0.02,WeatherDisplay:10.37,2013-03-26 17:56:00,
2013-03-26 14:01:00,46.0,30.8,30.10,West,270,6.1,6.1,55,0.00,CLR,SKC,0.02,WeatherDisplay:10.37,2013-03-26 18:01:00,
2013-03-26 14:06:00,46.0,31.2,30.09,WNW,292,5.9,8.1,56,0.00,CLR,SKC,0.02,WeatherDisplay:10.37,2013-03-26 18:06:00,
2013-03-26 14:11:00,46.0,30.8,30.09,West,270,5.7,6.9,55,0.00,CLR,SKC,0.02,WeatherDisplay:10.37,2013-03-26 18:11:00,
2013-03-26 14:16:00,46.0,31.2,30.10,WSW,248,6.2,8.1,56,0.00,CLR,SKC,0.02,WeatherDisplay:10.37,2013-03-26 18:16:00,
2013-03-26 14:21:00,46.0,30.8,30.09,NW,315,7.5,10.4,55,0.00,CLR,SKC,0.02,WeatherDisplay:10.37,2013-03-26 18:21:00,
2013-03-26 14:26:00,46.0,31.2,30.09,WNW,292,6.3,10.4,56,0.00,CLR,SKC,0.02,WeatherDisplay:10.37,2013-03-26 18:26:00,
2013-03-26 14:31:00,46.0,30.8,30.09,West,270,5.3,8.1,55,0.00,CLR,SKC,0.02,WeatherDisplay:10.37,2013-03-26 18:31:00,
2013-03-26 14:36:00,46.0,30.8,30.09,West,270,5.8,8.1,55,0.00,CLR,SKC,0.02,WeatherDisplay:10.37,2013-03-26 18:36:00,
2013-03-26 14:41:00,45.7,30.4,30.09,NW,315,5.5,5.5,55,0.00,CLR,SKC,0.02,WeatherDisplay:10.37,2013-03-26 18:41:00,
2013-03-26 14:46:00,45.7,30.4,30.09,West,270,9.8,9.8,55,0.00,CLR,SKC,0.02,WeatherDisplay:10.37,2013-03-26 18:46:00,
2013-03-26 14:51:00,45.3,30.1,30.09,NW,315,3.3,4.9,55,0.00,CLR,SKC,0.02,WeatherDisplay:10.37,2013-03-26 18:51:00,
2013-03-26 14:56:00,45.7,30.4,30.09,WNW,292,3.2,3.2,55,0.00,CLR,SKC,0.02,WeatherDisplay:10.37,2013-03-26 18:56:00,
2013-03-26 15:00:00,46.0,30.8,30.09,WNW,292,5.5,9.2,55,0.00,CLR,SKC,0.02,WeatherDisplay:10.37,2013-03-26 19:00:00,
2013-03-26 15:05:00,46.2,30.5,30.09,West,270,7.0,10.4,54,0.00,CLR,SKC,0.02,WeatherDisplay:10.37,2013-03-26 19:05:00,
2013-03-26 15:10:00,46.6,31.3,30.10,West,270,5.7,9.2,55,0.00,CLR,SKC,0.02,WeatherDisplay:10.37,2013-03-26 19:10:00,
2013-03-26 15:15:00,46.6,31.7,30.10,West,270,4.3,6.9,56,0.00,CLR,SKC,0.02,WeatherDisplay:10.37,2013-03-26 19:15:00,
2013-03-26 15:20:00,45.7,30.9,30.10,West,270,3.8,5.8,56,0.00,CLR,SKC,0.02,WeatherDisplay:10.37,2013-03-26 19:20:00,
2013-03-26 15:25:00,44.8,30.0,30.09,West,270,4.5,7.4,56,0.00,CLR,SKC,0.02,WeatherDisplay:10.37,2013-03-26 19:25:00,
2013-03-26 15:30:00,44.1,29.8,30.10,West,270,7.1,10.4,57,0.00,CLR,SKC,0.02,WeatherDisplay:10.37,2013-03-26 19:30:00,
2013-03-26 15:35:00,43.3,30.0,30.10,West,270,3.7,4.7,59,0.00,CLR,SKC,0.02,WeatherDisplay:10.37,2013-03-26 19:35:00,
2013-03-26 15:40:00,43.2,29.8,30.09,WNW,292,4.0,4.6,59,0.00,CLR,SKC,0.02,WeatherDisplay:10.37,2013-03-26 19:40:00,
2013-03-26 15:45:00,43.5,30.1,30.10,West,270,3.4,5.6,59,0.00,CLR,SKC,0.02,WeatherDisplay:10.37,2013-03-26 19:45:00,
2013-03-26 15:50:00,43.7,30.3,30.10,West,270,4.5,4.6,59,0.00,CLR,SKC,0.02,WeatherDisplay:10.37,2013-03-26 19:50:00,
2013-03-26 15:55:00,44.2,30.8,30.10,WSW,248,8.9,11.5,59,0.00,CLR,SKC,0.02,WeatherDisplay:10.37,2013-03-26 19:55:00,
2013-03-26 16:00:00,44.1,31.1,30.10,West,270,4.1,6.9,60,0.00,CLR,SKC,0.02,WeatherDisplay:10.37,2013-03-26 20:00:00,
2013-03-26 16:05:00,44.1,31.1,30.10,NW,315,5.8,6.9,60,0.00,CLR,SKC,0.02,WeatherDisplay:10.37,2013-03-26 20:05:00,
2013-03-26 16:10:00,43.9,30.9,30.09,West,270,4.9,6.9,60,0.00,CLR,SKC,0.02,WeatherDisplay:10.37,2013-03-26 20:10:00,
2013-03-26 16:15:00,43.7,30.7,30.10,WNW,292,4.8,8.1,60,0.00,CLR,SKC,0.02,WeatherDisplay:10.37,2013-03-26 20:15:00,
2013-03-26 16:20:00,43.7,30.7,30.10,West,270,2.7,4.6,60,0.00,CLR,SKC,0.02,WeatherDisplay:10.37,2013-03-26 20:20:00,
2013-03-26 16:25:00,43.9,31.3,30.10,WNW,292,4.0,8.1,61,0.00,CLR,SKC,0.02,WeatherDisplay:10.37,2013-03-26 20:25:00,
2013-03-26 16:30:00,44.1,31.1,30.09,West,270,0.6,3.5,60,0.00,CLR,SKC,0.02,WeatherDisplay:10.37,2013-03-26 20:30:00,
2013-03-26 16:35:00,44.4,31.4,30.09,West,270,3.5,9.2,60,0.00,CLR,SKC,0.02,WeatherDisplay:10.37,2013-03-26 20:35:00,
2013-03-26 16:40:00,44.2,31.2,30.09,West,270,3.1,6.5,60,0.00,CLR,SKC,0.02,WeatherDisplay:10.37,2013-03-26 20:40:00,
2013-03-26 16:45:00,43.5,30.5,30.10,West,270,5.1,8.1,60,0.00,CLR,SKC,0.02,WeatherDisplay:10.37,2013-03-26 20:45:00,
2013-03-26 16:50:00,43.2,30.6,30.09,West,270,6.6,10.4,61,0.00,CLR,SKC,0.02,WeatherDisplay:10.37,2013-03-26 20:50:00,
2013-03-26 16:55:00,43.0,30.4,30.09,West,270,6.0,11.5,61,0.00,CLR,SKC,0.02,WeatherDisplay:10.37,2013-03-26 20:55:00,
2013-03-26 17:00:00,42.8,30.3,30.09,West,270,1.8,6.9,61,0.00,CLR,SKC,0.02,WeatherDisplay:10.37,2013-03-26 21:00:00,
2013-03-26 17:05:00,43.0,30.4,30.09,West,270,5.2,6.0,61,0.00,CLR,SKC,0.02,WeatherDisplay:10.37,2013-03-26 21:05:00,
2013-03-26 17:10:00,42.6,30.1,30.09,SW,225,5.3,8.1,61,0.00,CLR,SKC,0.02,WeatherDisplay:10.37,2013-03-26 21:10:00,
2013-03-26 17:15:00,42.6,30.1,30.09,West,270,9.1,12.7,61,0.00,CLR,SKC,0.02,WeatherDisplay:10.37,2013-03-26 21:15:00,
2013-03-26 17:20:00,42.4,30.3,30.09,West,270,7.2,11.5,62,0.00,CLR,SKC,0.02,WeatherDisplay:10.37,2013-03-26 21:20:00,
2013-03-26 17:25:00,42.1,30.0,30.09,West,270,6.8,9.2,62,0.00,CLR,SKC,0.02,WeatherDisplay:10.37,2013-03-26 21:25:00,
2013-03-26 17:30:00,42.1,30.0,30.09,West,270,6.8,9.2,62,0.00,CLR,SKC,0.02,WeatherDisplay:10.37,2013-03-26 21:30:00,
2013-03-26 17:35:00,41.9,30.2,30.09,West,270,5.9,10.5,63,0.00,CLR,SKC,0.02,WeatherDisplay:10.37,2013-03-26 21:35:00,
2013-03-26 17:40:00,41.5,30.3,30.10,WSW,248,7.6,12.7,64,0.00,CLR,SKC,0.02,WeatherDisplay:10.37,2013-03-26 21:40:00,
2013-03-26 17:45:00,41.2,29.9,30.09,West,270,4.8,6.9,64,0.00,CLR,SKC,0.02,WeatherDisplay:10.37,2013-03-26 21:45:00,
2013-03-26 17:50:00,40.8,30.0,30.10,WSW,248,6.0,9.2,65,0.00,CLR,SKC,0.02,WeatherDisplay:10.37,2013-03-26 21:50:00,
2013-03-26 17:55:00,40.8,30.3,30.09,SSW,202,4.1,5.8,66,0.00,CLR,SKC,0.02,WeatherDisplay:10.37,2013-03-26 21:55:00,
2013-03-26 18:00:00,40.8,30.3,30.10,West,270,6.8,9.2,66,0.00,CLR,SKC,0.02,WeatherDisplay:10.37,2013-03-26 22:00:00,
2013-03-26 18:05:00,40.8,30.3,30.10,WSW,248,5.9,6.9,66,0.00,CLR,SKC,0.02,WeatherDisplay:10.37,2013-03-26 22:05:00,
2013-03-26 18:10:00,40.8,30.3,30.10,West,270,5.1,9.2,66,0.00,CLR,SKC,0.02,WeatherDisplay:10.37,2013-03-26 22:10:00,
2013-03-26 18:15:00,40.8,30.7,30.10,WSW,248,7.3,7.3,67,0.00,CLR,SKC,0.02,WeatherDisplay:10.37,2013-03-26 22:15:00,
2013-03-26 18:20:00,40.8,30.3,30.10,WSW,248,5.3,6.9,66,0.00,CLR,SKC,0.02,WeatherDisplay:10.37,2013-03-26 22:20:00,
2013-03-26 18:25:00,40.8,30.7,30.10,WSW,248,5.4,10.4,67,0.00,CLR,SKC,0.02,WeatherDisplay:10.37,2013-03-26 22:25:00,
2013-03-26 18:30:00,40.1,30.0,30.10,WSW,248,5.2,10.4,67,0.00,CLR,SKC,0.02,WeatherDisplay:10.37,2013-03-26 22:30:00,
2013-03-26 18:35:00,39.7,29.7,30.11,West,270,5.0,8.1,67,0.00,CLR,SKC,0.02,WeatherDisplay:10.37,2013-03-26 22:35:00,
2013-03-26 18:40:00,39.6,29.9,30.11,WSW,248,3.4,7.6,68,0.00,CLR,SKC,0.02,WeatherDisplay:10.37,2013-03-26 22:40:00,
2013-03-26 18:45:00,39.2,29.5,30.11,West,270,4.6,12.7,68,0.00,CLR,SKC,0.02,WeatherDisplay:10.37,2013-03-26 22:45:00,
2013-03-26 18:50:00,39.0,29.7,30.11,West,270,2.9,6.9,69,0.00,CLR,SKC,0.02,WeatherDisplay:10.37,2013-03-26 22:50:00,
2013-03-26 18:55:00,39.0,29.7,30.11,SW,225,3.9,9.2,69,0.00,CLR,SKC,0.02,WeatherDisplay:10.37,2013-03-26 22:55:00,
2013-03-26 19:00:00,38.8,29.5,30.10,WSW,248,7.1,10.4,69,0.00,CLR,SKC,0.02,WeatherDisplay:10.37,2013-03-26 23:00:00,
2013-03-26 19:05:00,38.8,29.9,30.10,WSW,248,3.6,5.8,70,0.00,CLR,SKC,0.02,WeatherDisplay:10.37,2013-03-26 23:05:00,
2013-03-26 19:10:00,38.5,29.5,30.10,West,270,7.3,7.3,70,0.00,CLR,SKC,0.02,WeatherDisplay:10.37,2013-03-26 23:10:00,
2013-03-26 19:15:00,38.3,29.4,30.11,WSW,248,6.7,8.1,70,0.00,CLR,SKC,0.02,WeatherDisplay:10.37,2013-03-26 23:15:00,
2013-03-26 19:20:00,38.1,29.5,30.10,WSW,248,3.8,12.7,71,0.00,CLR,SKC,0.02,WeatherDisplay:10.37,2013-03-26 23:20:00,
2013-03-26 19:25:00,37.9,29.4,30.10,SW,225,4.8,8.1,71,0.00,CLR,SKC,0.02,WeatherDisplay:10.37,2013-03-26 23:25:00,
2013-03-26 19:30:00,37.8,29.2,30.10,SW,225,5.2,9.2,71,0.00,CLR,SKC,0.02,WeatherDisplay:10.37,2013-03-26 23:30:00,
2013-03-26 19:35:00,37.6,29.0,30.11,SW,225,3.8,4.0,71,0.00,CLR,SKC,0.02,WeatherDisplay:10.37,2013-03-26 23:35:00,
2013-03-26 19:40:00,37.6,29.0,30.10,SW,225,3.7,9.2,71,0.00,CLR,SKC,0.02,WeatherDisplay:10.37,2013-03-26 23:40:00,
2013-03-26 19:45:00,37.2,28.7,30.10,West,270,5.9,8.1,71,0.00,CLR,SKC,0.02,WeatherDisplay:10.37,2013-03-26 23:45:00,
2013-03-26 19:50:00,37.0,28.5,30.11,WSW,248,5.7,10.4,71,0.00,CLR,SKC,0.02,WeatherDisplay:10.37,2013-03-26 23:50:00,
2013-03-26 19:55:00,36.7,28.2,30.11,SW,225,3.0,9.6,71,0.00,CLR,SKC,0.02,WeatherDisplay:10.37,2013-03-26 23:55:00,
2013-03-26 20:00:00,36.7,28.2,30.11,WNW,292,6.9,9.2,71,0.00,CLR,SKC,0.02,WeatherDisplay:10.37,2013-03-27 00:00:00,
2013-03-26 20:05:00,36.3,28.2,30.11,West,270,1.9,11.5,72,0.00,CLR,SKC,0.02,WeatherDisplay:10.37,2013-03-27 00:05:00,
2013-03-26 20:10:00,36.3,28.2,30.11,WNW,292,5.9,11.5,72,0.00,CLR,SKC,0.02,WeatherDisplay:10.37,2013-03-27 00:10:00,
2013-03-26 20:15:00,36.1,28.0,30.11,WSW,248,3.1,7.2,72,0.00,CLR,SKC,0.02,WeatherDisplay:10.37,2013-03-27 00:15:00,
2013-03-26 20:20:00,35.8,27.6,30.11,West,270,8.2,11.4,72,0.00,CLR,SKC,0.02,WeatherDisplay:10.37,2013-03-27 00:20:00,
2013-03-26 20:25:00,35.4,27.6,30.11,West,270,6.3,10.4,73,0.00,CLR,SKC,0.02,WeatherDisplay:10.37,2013-03-27 00:25:00,
2013-03-26 20:30:00,35.4,27.6,30.11,WSW,248,3.1,8.5,73,0.00,CLR,SKC,0.02,WeatherDisplay:10.37,2013-03-27 00:30:00,
2013-03-26 20:35:00,35.2,27.8,30.12,WSW,248,6.1,8.1,74,0.00,CLR,SKC,0.02,WeatherDisplay:10.37,2013-03-27 00:35:00,
2013-03-26 20:40:00,34.9,27.1,30.11,West,270,4.6,6.9,73,0.00,CLR,SKC,0.02,WeatherDisplay:10.37,2013-03-27 00:40:00,
2013-03-26 20:45:00,34.9,27.4,30.12,WSW,248,5.4,6.9,74,0.00,CLR,SKC,0.02,WeatherDisplay:10.37,2013-03-27 00:45:00,
2013-03-26 20:50:00,34.9,27.4,30.12,West,270,6.3,8.1,74,0.00,CLR,SKC,0.02,WeatherDisplay:10.37,2013-03-27 00:50:00,
2013-03-26 20:55:00,34.9,27.4,30.12,WNW,292,6.0,9.2,74,0.00,CLR,SKC,0.02,WeatherDisplay:10.37,2013-03-27 00:55:00,
2013-03-26 21:00:00,34.9,27.4,30.12,WSW,248,4.9,6.9,74,0.00,CLR,SKC,0.02,WeatherDisplay:10.37,2013-03-27 01:00:00,
2013-03-26 21:05:00,35.1,27.6,30.12,WNW,292,6.1,9.2,74,0.00,CLR,SKC,0.02,WeatherDisplay:10.37,2013-03-27 01:05:00,
2013-03-26 21:10:00,35.2,27.8,30.13,West,270,5.8,9.2,74,0.00,CLR,SKC,0.02,WeatherDisplay:10.37,2013-03-27 01:10:00,
2013-03-26 21:15:00,35.2,27.8,30.12,West,270,2.8,6.9,74,0.00,CLR,SKC,0.02,WeatherDisplay:10.37,2013-03-27 01:15:00,
2013-03-26 21:20:00,35.2,27.8,30.13,WSW,248,5.6,9.2,74,0.00,CLR,SKC,0.02,WeatherDisplay:10.37,2013-03-27 01:20:00,
2013-03-26 21:25:00,35.2,27.8,30.13,SW,225,4.6,9.2,74,0.00,CLR,SKC,0.02,WeatherDisplay:10.37,2013-03-27 01:25:00,
2013-03-26 21:30:00,35.1,27.6,30.13,West,270,5.4,8.1,74,0.00,CLR,SKC,0.02,WeatherDisplay:10.37,2013-03-27 01:30:00,
2013-03-26 21:35:00,34.9,27.4,30.13,SW,225,6.2,11.5,74,0.00,CLR,SKC,0.02,WeatherDisplay:10.37,2013-03-27 01:35:00,
2013-03-26 21:40:00,34.9,27.4,30.12,WSW,248,6.7,9.2,74,0.00,CLR,SKC,0.02,WeatherDisplay:10.37,2013-03-27 01:40:00,
2013-03-26 21:45:00,34.9,27.8,30.13,WSW,248,4.8,9.2,75,0.00,CLR,SKC,0.02,WeatherDisplay:10.37,2013-03-27 01:45:00,
2013-03-26 21:50:00,34.9,27.8,30.13,WSW,248,4.5,9.2,75,0.00,CLR,SKC,0.02,WeatherDisplay:10.37,2013-03-27 01:50:00,
2013-03-26 21:55:00,34.9,27.8,30.13,WSW,248,4.5,9.2,75,0.00,CLR,SKC,0.02,WeatherDisplay:10.37,2013-03-27 01:55:00,
2013-03-26 22:00:00,34.9,27.8,30.13,WSW,248,4.9,5.8,75,0.00,CLR,SKC,0.02,WeatherDisplay:10.37,2013-03-27 02:00:00,
2013-03-26 22:05:00,34.9,27.8,30.13,WNW,292,8.5,11.5,75,0.00,CLR,SKC,0.02,WeatherDisplay:10.37,2013-03-27 02:05:00,
2013-03-26 22:10:00,34.9,27.8,30.13,West,270,5.4,5.8,75,0.00,CLR,SKC,0.02,WeatherDisplay:10.37,2013-03-27 02:10:00,
2013-03-26 22:15:00,34.9,27.8,30.13,WNW,292,2.6,5.8,75,0.00,CLR,SKC,0.02,WeatherDisplay:10.37,2013-03-27 02:15:00,
2013-03-26 22:20:00,34.9,27.8,30.13,WSW,248,3.4,4.6,75,0.00,CLR,SKC,0.02,WeatherDisplay:10.37,2013-03-27 02:20:00,
2013-03-26 22:25:00,34.9,27.8,30.14,WNW,292,5.7,8.1,75,0.00,CLR,SKC,0.02,WeatherDisplay:10.37,2013-03-27 02:25:00,
2013-03-26 22:30:00,34.9,27.8,30.14,West,270,3.9,4.6,75,0.00,CLR,SKC,0.02,WeatherDisplay:10.37,2013-03-27 02:30:00,
2013-03-26 22:35:00,34.9,27.8,30.14,WNW,292,3.0,4.6,75,0.00,CLR,SKC,0.02,WeatherDisplay:10.37,2013-03-27 02:35:00,
2013-03-26 22:40:00,34.9,27.8,30.14,West,270,6.4,11.5,75,0.00,CLR,SKC,0.02,WeatherDisplay:10.37,2013-03-27 02:40:00,
2013-03-26 22:45:00,34.9,27.8,30.14,WNW,292,4.6,8.1,75,0.00,CLR,SKC,0.02,WeatherDisplay:10.37,2013-03-27 02:45:00,
2013-03-26 22:50:00,34.9,27.8,30.14,West,270,2.6,2.6,75,0.00,CLR,SKC,0.02,WeatherDisplay:10.37,2013-03-27 02:50:00,
2013-03-26 22:55:00,34.9,28.1,30.14,West,270,5.4,6.9,76,0.00,CLR,SKC,0.02,WeatherDisplay:10.37,2013-03-27 02:55:00,
2013-03-26 23:00:00,34.9,27.8,30.14,WSW,248,2.9,5.8,75,0.00,CLR,SKC,0.02,WeatherDisplay:10.37,2013-03-27 03:00:00,
2013-03-26 23:05:00,34.9,28.1,30.14,WNW,292,2.9,5.8,76,0.00,CLR,SKC,0.02,WeatherDisplay:10.37,2013-03-27 03:05:00,
2013-03-26 23:10:00,34.9,27.8,30.14,WSW,248,1.3,5.8,75,0.00,CLR,SKC,0.02,WeatherDisplay:10.37,2013-03-27 03:10:00,
2013-03-26 23:15:00,34.9,27.8,30.14,West,270,3.8,6.9,75,0.00,CLR,SKC,0.02,WeatherDisplay:10.37,2013-03-27 03:15:00,
2013-03-26 23:20:00,34.9,28.1,30.14,WNW,292,3.9,4.6,76,0.00,CLR,SKC,0.02,WeatherDisplay:10.37,2013-03-27 03:20:00,
2013-03-26 23:25:00,34.9,27.8,30.14,West,270,7.5,10.4,75,0.00,CLR,SKC,0.02,WeatherDisplay:10.37,2013-03-27 03:25:00,
2013-03-26 23:30:00,34.9,27.8,30.14,West,270,2.3,8.1,75,0.00,CLR,SKC,0.02,WeatherDisplay:10.37,2013-03-27 03:30:00,
2013-03-26 23:35:00,34.9,27.8,30.14,WNW,292,5.1,7.6,75,0.00,CLR,SKC,0.02,WeatherDisplay:10.37,2013-03-27 03:35:00,
2013-03-26 23:40:00,34.7,27.6,30.14,West,270,1.8,4.6,75,0.00,CLR,SKC,0.02,WeatherDisplay:10.37,2013-03-27 03:40:00,
2013-03-26 23:45:00,34.7,27.6,30.14,West,270,2.2,4.6,75,0.00,CLR,SKC,0.02,WeatherDisplay:10.37,2013-03-27 03:45:00,
2013-03-26 23:50:00,34.7,27.6,30.14,West,270,2.6,3.8,75,0.00,CLR,SKC,0.02,WeatherDisplay:10.37,2013-03-27 03:50:00,
2013-03-26 23:55:00,34.7,27.6,30.15,SW,225,2.6,5.8,75,0.00,CLR,SKC,0.02,WeatherDisplay:10.37,2013-03-27 03:55:00,